[[{"header":{"parameterUnit":"m.s-1","parameterCategory":1,"la1":30.2991,"la2":30.254,"lo1":-89.0895,"lo2":-89.0444,"dy":0.0017,"dx":0.0017,"nx":28,"ny":28,"refTime":"2024-04-18T03:00:00:Z","depth":0,"parameterNumber":2,"parameterNumberName":"U-component_of_WINDS"},"data":[0,0,0,0,0,0,0,0,0,0,0,0,0,0,0,0,0,0,0,0,0,0,0,0,0,0,0,0,0,0,0,0,0,0,0,0,0,0,0,0,0,0,0,0,0,0,0,0,0,0,0,0,0,0,0,0,0,0,-2.2181,-2.2182,0,-2.2277,-2.2278,-2.2279,-2.2289,-2.2288,-2.2287,-2.2286,-2.2386,-2.239,-2.2393,0,0,0,0,0,0,0,0,0,0,0,0,0,-2.201,-2.2013,-2.2181,-2.2182,-2.2183,-2.2277,-2.2278,-2.2279,-2.2289,-2.2288,-2.2287,-2.2286,-2.2385,-2.2389,-2.2393,0,0,0,0,0,0,0,0,0,0,0,0,0,-2.2093,-2.2014,-2.2181,-2.22,-2.2202,-2.2277,-2.2278,-2.228,-2.229,-2.2288,-2.2287,-2.2285,-2.2384,-2.2389,-2.2394,-2.2457,0,0,-2.241,-2.2413,0,0,0,0,0,0,0,0,-2.2088,-2.2099,-2.2196,-2.2198,-2.2202,-2.227,-2.2254,-2.2339,-2.229,-2.2257,-2.2286,-2.2285,-2.2349,-2.2357,-2.2378,-2.2461,-2.2466,-2.2411,-2.2414,-2.2416,-2.2418,0,0,0,0,0,0,0,-2.2082,-2.2095,-2.2219,-2.2197,-2.2201,-2.2204,-2.2215,-2.227,-2.231,-2.2259,-2.226,-2.2271,-2.235,-2.2373,-2.2381,-2.2467,-2.2411,-2.2416,-2.2419,-2.2421,-2.2608,-2.261,0,0,0,0,0,0,-2.2073,-2.209,-2.2216,-2.2222,-2.214,-2.2209,-2.222,-2.2249,-2.2309,-2.2317,-2.2273,-2.2272,-2.2364,-2.2374,-2.2384,-2.2462,-2.2416,-2.2421,-2.2425,-2.2606,-2.2609,-2.261,0,0,0,0,0,0,-2.2069,-2.2084,-2.2212,-2.2156,-2.2173,-2.2213,-2.2246,-2.2252,-2.2275,-2.2319,-2.2326,-2.2289,-2.2364,-2.2377,-2.2439,-2.2465,-2.2424,-2.2429,-2.2604,-2.2607,-2.2609,-2.2617,0,0,0,0,0,0,-2.2064,-2.2082,-2.2105,-2.2157,-2.2176,-2.2264,-2.2248,-2.2255,-2.2284,-2.2283,-2.2336,-2.2343,-2.2364,-2.2431,-2.2444,-2.2472,-2.2433,-2.2602,-2.2606,-2.2609,-2.2614,-2.2619,-2.2623,0,0,0,0,0,-2.2058,-2.2104,-2.2107,-2.2122,-2.2206,-2.2266,-2.2277,-2.2298,-2.2286,-2.231,-2.2339,-2.2342,-2.2461,-2.2437,-2.2452,-2.2482,-2.26,-2.2605,-2.2608,-2.2612,-2.2618,-2.2623,0,0,0,0,0,0,-2.2054,-2.2111,-2.2114,-2.2178,-2.2217,-2.2267,-2.2298,-2.2304,-2.2347,-2.2345,-2.2371,-2.2383,-2.2444,-2.247,-2.2442,-2.2546,-2.2529,-2.2537,-2.2527,-2.2533,-2.2538,-2.253,-2.2437,0,0,0,0,0,-2.2061,-2.2105,-2.2152,-2.2204,-2.2223,-2.2257,-2.2284,-2.2298,-2.2339,-2.2356,-2.2389,-2.243,-2.2477,-2.2507,-2.2552,-2.2619,-2.2631,-2.2647,-2.2652,-2.2655,-2.2661,-2.2699,-2.2706,-2.2623,-2.2623,-2.2623,0,0,-2.2075,-2.2112,-2.2137,-2.2204,-2.2235,-2.2281,-2.2271,-2.2319,-2.2353,-2.2363,-2.2424,-2.245,-2.2498,-2.2562,-2.2593,-2.2585,-2.2687,-2.266,-2.2663,-2.2666,-2.2704,-2.2711,-2.2718,-2.2626,-2.2626,-2.2625,0,0,-2.2124,-2.2156,-2.2203,-2.2235,-2.2283,-2.2306,-2.2318,-2.2368,-2.2385,-2.2447,-2.2456,-2.2498,-2.2577,-2.2611,-2.2638,-2.2702,-2.2707,-2.2717,-2.274,-2.2777,-2.2784,-2.2789,-2.2812,-2.282,-2.2722,-2.2722,-2.2723,0,-2.2136,-2.2203,-2.2226,-2.2274,-2.2303,-2.2316,-2.2364,-2.2395,-2.2455,-2.2476,-2.2467,-2.2568,-2.2601,-2.2674,-2.269,-2.2712,-2.2727,-2.271,-2.2781,-2.2787,-2.2793,-2.2815,-2.2823,-2.2723,-2.2723,-2.2723,-2.2723,0,-2.2215,-2.2262,-2.2294,-2.2352,-2.2386,-2.2434,-2.2465,-2.2497,-2.2508,-2.2533,-2.2596,-2.2636,-2.269,-2.2709,-2.2721,-2.2785,-2.2779,-2.2775,-2.2758,-2.2801,-2.2822,-2.2831,-2.2724,-2.2724,-2.2724,-2.2724,0,0,-2.2262,-2.2333,-2.2345,-2.2372,-2.2427,-2.2464,-2.2514,-2.2567,-2.2593,-2.2636,-2.2678,-2.2746,-2.2744,-2.2775,-2.2792,-2.2824,-2.2873,-2.2817,-2.2818,-2.2825,-2.2946,-2.2947,-2.2956,-2.2877,-2.2879,-2.288,-2.2942,0,-2.2316,-2.2403,-2.2426,-2.25,-2.2545,-2.2558,-2.2602,-2.2641,-2.2666,-2.2708,-2.2736,-2.2784,-2.2777,-2.2796,-2.2829,-2.286,-2.2897,-2.2856,-2.2917,-2.2918,-2.2902,-2.2967,-2.2969,-2.3025,-2.295,-2.2952,-2.2953,0,-2.239,-2.2434,-2.2512,-2.2563,-2.2583,-2.2621,-2.2672,-2.2712,-2.2757,-2.2773,-2.2809,-2.2823,-2.2877,-2.2859,-2.2933,-2.2904,-2.2931,-2.295,-2.2953,-2.2958,-2.2937,-2.2973,-2.3043,-2.3051,-2.2966,-2.2965,-2.2964,0,-2.2416,-2.2495,-2.2552,-2.2575,-2.2635,-2.2662,-2.2689,-2.2733,-2.2764,-2.2809,-2.283,-2.2881,-2.2909,-2.2949,-2.2977,-2.2961,-2.3049,-2.3033,-2.3064,-2.3063,-2.308,-2.3078,-2.3154,-2.3099,-2.3099,-2.3099,-2.3099,0,-2.2473,-2.252,-2.2564,-2.2599,-2.2653,-2.2681,-2.2734,-2.2762,-2.2801,-2.2843,-2.2859,-2.2898,-2.2933,-2.2977,-2.2999,-2.3058,-2.307,-2.3085,-2.309,-2.3083,-2.3081,-2.3099,-2.3096,-2.3101,-2.3101,-2.31,-2.31,0,-2.2509,-2.2541,-2.2604,-2.2657,-2.2672,-2.2709,-2.2755,-2.279,-2.2817,-2.2869,-2.2883,-2.2925,-2.2978,-2.301,-2.3077,-2.3092,-2.3157,-2.3161,-2.3141,-2.3143,-2.3171,-2.3168,-2.326,-2.3274,-2.3212,-2.3212,-2.3213,0,-2.2543,-2.258,-2.2637,-2.2666,-2.2693,-2.2739,-2.2771,-2.2801,-2.2833,-2.2889,-2.2918,-2.2972,-2.3016,-2.31,-2.3137,-2.3189,-2.3194,-2.3223,-2.3202,-2.3193,-2.3194,-2.319,-2.3194,-2.3226,-2.3226,-2.3227,-2.3227,0,-2.26,-2.2614,-2.2658,-2.2709,-2.2746,-2.2787,-2.2829,-2.2852,-2.2889,-2.2925,-2.2979,-2.3014,-2.3083,-2.3136,-2.3191,-2.322,-2.323,-2.3234,-2.3244,-2.3236,-2.3222,-2.3229,-2.3149,-2.3231,-2.3231,-2.323,-2.323,-2.323,-2.2636,-2.2669,-2.2715,-2.2764,-2.2799,-2.2837,-2.2873,-2.2905,-2.295,-2.3008,-2.3023,-2.308,-2.3127,-2.3202,-2.3233,-2.3278,-2.3274,-2.3288,-2.3292,-2.3294,-2.3295,-2.3216,-2.3289,-2.3289,-2.3289,-2.3289,-2.3289,0,-2.2692,-2.2723,-2.2768,-2.2825,-2.2865,-2.2871,-2.2918,-2.2951,-2.3,-2.3043,-2.3086,-2.3149,-2.3202,-2.3244,-2.3298,-2.3327,-2.3333,-2.334,-2.3337,-2.3344,-2.3296,-2.3281,-2.3334,-2.3334,-2.3334,-2.3334,-2.3334,-2.3334,-2.2726,-2.2783,-2.2803,-2.2878,-2.2909,-2.2964,-2.299,-2.3027,-2.3061,-2.313,-2.3174,-2.3201,-2.3243,-2.3301,-2.335,-2.3361,-2.338,-2.3387,-2.3398,-2.3352,-2.3347,-2.3342,-2.3329,-2.3391,-2.3391,-2.3443,-2.3443,-2.3443]},{"header":{"parameterUnit":"m.s-1","parameterCategory":1,"la1":30.2991,"la2":30.254,"lo1":-89.0895,"lo2":-89.0444,"dy":0.0017,"dx":0.0017,"nx":28,"ny":28,"refTime":"2024-04-18T03:00:00:Z","depth":0,"parameterNumber":3,"parameterNumberName":"V-component_of_WINDS"},"data":[0,0,0,0,0,0,0,0,0,0,0,0,0,0,0,0,0,0,0,0,0,0,0,0,0,0,0,0,0,0,0,0,0,0,0,0,0,0,0,0,0,0,0,0,0,0,0,0,0,0,0,0,0,0,0,0,0,0,3.7893,3.7894,0,3.7937,3.7937,3.7938,3.796,3.796,3.796,3.796,3.8003,3.8004,3.8005,0,0,0,0,0,0,0,0,0,0,0,0,0,3.7828,3.7829,3.7893,3.7894,3.7894,3.7937,3.7937,3.7938,3.796,3.796,3.796,3.796,3.8002,3.8004,3.8005,0,0,0,0,0,0,0,0,0,0,0,0,0,3.7863,3.783,3.7893,3.791,3.7912,3.7937,3.7937,3.7938,3.796,3.796,3.796,3.796,3.8002,3.8003,3.8005,3.8015,0,0,3.801,3.8011,0,0,0,0,0,0,0,0,3.7861,3.7865,3.7907,3.7909,3.7912,3.7943,3.793,3.7964,3.796,3.7942,3.796,3.796,3.7983,3.7986,3.7994,3.8017,3.8019,3.801,3.8011,3.8012,3.8013,0,0,0,0,0,0,0,3.7858,3.7863,3.791,3.7908,3.791,3.7916,3.7921,3.7937,3.7961,3.7943,3.7945,3.795,3.7984,3.7992,3.7995,3.802,3.801,3.8012,3.8013,3.8014,3.8054,3.8054,0,0,0,0,0,0,3.7853,3.7861,3.7909,3.7912,3.7886,3.7917,3.7922,3.7933,3.7961,3.7966,3.795,3.7951,3.7989,3.7993,3.7997,3.8011,3.8012,3.8014,3.8015,3.8054,3.8054,3.8054,0,0,0,0,0,0,3.7852,3.7857,3.7907,3.7887,3.7894,3.7918,3.7929,3.7934,3.7942,3.7966,3.7971,3.7954,3.799,3.7994,3.8011,3.8013,3.8014,3.8016,3.8054,3.8054,3.8054,3.804,0,0,0,0,0,0,3.785,3.7857,3.7861,3.7887,3.7895,3.7921,3.793,3.7934,3.7945,3.7947,3.7971,3.7975,3.799,3.8008,3.8012,3.8015,3.8017,3.8054,3.8054,3.8054,3.804,3.8039,3.8038,0,0,0,0,0,3.7847,3.7854,3.7861,3.7867,3.7901,3.7921,3.7925,3.7942,3.7945,3.795,3.7965,3.7975,3.8012,3.801,3.8015,3.8018,3.8054,3.8054,3.8054,3.804,3.8039,3.8038,0,0,0,0,0,0,3.7827,3.7858,3.7866,3.7881,3.7898,3.7925,3.7931,3.794,3.7957,3.7957,3.7977,3.7983,3.7997,3.8009,3.8006,3.803,3.8034,3.8035,3.8022,3.8021,3.802,3.8017,3.8019,0,0,0,0,0,3.7824,3.7839,3.7865,3.7876,3.7885,3.7906,3.7916,3.7927,3.7946,3.7953,3.797,3.7987,3.8002,3.8012,3.8028,3.8042,3.8048,3.8047,3.8046,3.8045,3.8046,3.8055,3.8055,3.8055,3.8055,3.8055,0,0,3.7819,3.7838,3.7845,3.7873,3.7887,3.7902,3.7912,3.7926,3.7937,3.7955,3.7972,3.7985,3.8005,3.8021,3.8028,3.8031,3.8048,3.8045,3.8045,3.8046,3.8055,3.8055,3.8055,3.8055,3.8055,3.8055,0,0,3.7817,3.7832,3.7844,3.7859,3.7881,3.7896,3.7898,3.7923,3.7933,3.795,3.7964,3.7977,3.8003,3.8018,3.8028,3.8033,3.8042,3.8037,3.8033,3.8042,3.8042,3.8042,3.8045,3.8045,3.8038,3.8038,3.8038,0,3.7807,3.783,3.7848,3.7863,3.7875,3.7892,3.7904,3.7917,3.7943,3.7951,3.7953,3.7988,3.8002,3.8022,3.8023,3.8031,3.8035,3.8035,3.8041,3.8041,3.8041,3.8044,3.8045,3.8037,3.8037,3.8037,3.8037,0,3.7818,3.7833,3.784,3.7866,3.7878,3.7891,3.7911,3.7922,3.7932,3.7946,3.7964,3.7983,3.8003,3.8009,3.8019,3.803,3.8031,3.8037,3.8042,3.8041,3.8043,3.8044,3.8036,3.8036,3.8037,3.8037,0,0,3.7804,3.784,3.7842,3.7855,3.7881,3.7893,3.7907,3.7928,3.7937,3.7954,3.7967,3.7989,3.7995,3.8007,3.8019,3.8027,3.803,3.8032,3.8033,3.8031,3.8045,3.804,3.8041,3.8036,3.8037,3.8037,3.8043,0,3.7806,3.7832,3.785,3.7869,3.7884,3.7901,3.7913,3.7931,3.7944,3.7959,3.7974,3.799,3.7996,3.8004,3.8012,3.8028,3.8033,3.8028,3.8048,3.8049,3.8043,3.8043,3.8038,3.8043,3.8044,3.8044,3.8045,0,3.7812,3.783,3.7851,3.7877,3.7884,3.7894,3.7915,3.7929,3.7949,3.7959,3.7973,3.7985,3.8001,3.8004,3.8026,3.8022,3.8031,3.804,3.8041,3.8044,3.8047,3.8046,3.8045,3.8046,3.8046,3.8046,3.8046,0,3.78,3.783,3.7847,3.7857,3.7887,3.7894,3.7907,3.7927,3.7939,3.7957,3.7965,3.7984,3.7994,3.8009,3.8026,3.8027,3.8047,3.8051,3.8055,3.8055,3.8059,3.8059,3.806,3.8064,3.8064,3.8064,3.8064,0,3.7801,3.7814,3.7842,3.7853,3.7868,3.7887,3.7901,3.7915,3.7934,3.7947,3.7962,3.7974,3.7996,3.8011,3.8025,3.8042,3.8046,3.8054,3.8058,3.8053,3.8052,3.806,3.806,3.8064,3.8064,3.8064,3.8064,0,3.7791,3.7811,3.7831,3.7858,3.7865,3.7875,3.7898,3.7909,3.7924,3.7941,3.7946,3.7969,3.7987,3.8006,3.8031,3.804,3.8056,3.8061,3.805,3.8052,3.8055,3.8055,3.8062,3.8065,3.8066,3.8066,3.8066,0,3.7791,3.7801,3.783,3.7841,3.7853,3.787,3.7882,3.7902,3.7914,3.7939,3.7946,3.7966,3.7983,3.8012,3.8031,3.805,3.8055,3.8057,3.8058,3.8054,3.8056,3.8056,3.8057,3.8056,3.8056,3.8056,3.8056,0,3.7789,3.7798,3.7815,3.7836,3.7851,3.7868,3.7886,3.7893,3.7917,3.7929,3.7949,3.7962,3.7988,3.8008,3.8029,3.8042,3.8053,3.8055,3.8057,3.8053,3.8046,3.8051,3.8049,3.8055,3.8055,3.8055,3.8055,3.8055,3.7784,3.7794,3.7817,3.7836,3.7851,3.7868,3.788,3.7896,3.7913,3.7936,3.7947,3.7967,3.7987,3.8018,3.803,3.8046,3.8049,3.8052,3.8053,3.8053,3.8053,3.8044,3.805,3.805,3.805,3.805,3.805,0,3.7783,3.7799,3.7816,3.7841,3.7856,3.7865,3.7886,3.7897,3.7915,3.7934,3.795,3.7973,3.7992,3.8013,3.8034,3.8042,3.8048,3.8047,3.8047,3.805,3.8048,3.8045,3.8042,3.8042,3.8042,3.8042,3.8042,3.8042,3.7785,3.7803,3.7815,3.7841,3.7856,3.7877,3.7887,3.7903,3.7918,3.7943,3.796,3.7973,3.7993,3.8015,3.8033,3.8039,3.8046,3.8044,3.8051,3.8049,3.805,3.805,3.8047,3.8045,3.8045,3.8051,3.8051,3.8051]}]]